Waarnemingen

Advertentie
Mijn weer
Trapani/Birgi, Italië (16429): temperatuur & dauwpunt: 19.05.2018 12:00:00 - 25.05.2018 12:00:00 (CEST)Trapani/Birgi, Italië (16429): windsnelheid: 19.05.2018 12:00:00 - 25.05.2018 12:00:00 (CEST)Trapani/Birgi, Italië (16429): windrichting: 19.05.2018 12:00:00 - 25.05.2018 12:00:00 (CEST)Trapani/Birgi, Italië (16429): luchtdruk: 19.05.2018 12:00:00 - 25.05.2018 12:00:00 (CEST)Trapani/Birgi, Italië (16429): zicht: 19.05.2018 12:00:00 - 25.05.2018 12:00:00 (CEST)Trapani/Birgi, Italië (16429): Zonneschijnduur: 19.05.2018 12:00:00 - 25.05.2018 12:00:00 (CEST)
Datum & Tijd tt [°C] td [°C] ff [km/u] ff [kn] dd ppp [hPa] vv [km] sd [min]
25.05.2018 12:00:00 22,0 16,3 22 12 NNW 1015,6 25 60
25.05.2018 11:00:00 22,0 17,6 16 9 NNW 1015,7 25 60
25.05.2018 10:00:00 20,8 16,4 13 7 N 1015,9 25 60
25.05.2018 09:00:00 19,0 14,9 2 1 NW 1016,0 25 60
25.05.2018 08:00:00 16,0 12,6 2 1 ZO 1016,0 25 60
25.05.2018 07:00:00 12,2 9,4 2 1 O 1016,1 18 24
25.05.2018 06:00:00 12,4 9,4 8 4 ZO 1016,2 16 -
25.05.2018 05:00:00 13,0 10,5 2 1 ONO 1016,1 14 -
25.05.2018 04:00:00 13,6 11,1 5 3 ZO 1016,2 14 -
25.05.2018 03:00:00 15,0 12,3 4 2 NO 1016,4 14 -
25.05.2018 02:00:00 15,2 12,7 2 1 O 1016,6 14 -
25.05.2018 01:00:00 15,2 13,0 4 2 NO 1016,9 14 -
25.05.2018 00:00:00 16,6 14,6 5 3 ONO 1016,9 14 -
24.05.2018 23:00:00 17,4 15,4 5 3 N 1017,0 14 -
24.05.2018 22:00:00 18,4 15,8 4 2 NNO 1016,8 12 -
24.05.2018 21:00:00 19,4 16,6 5 3 N 1016,6 16 -
24.05.2018 20:00:00 20,6 16,6 21 11 N 1016,8 20 30
24.05.2018 19:00:00 21,0 17,6 18 10 N 1017,1 25 60
24.05.2018 18:00:00 21,2 17,4 24 13 N 1017,2 25 60
24.05.2018 17:00:00 21,2 17,4 18 10 NNW 1017,6 25 60
24.05.2018 16:00:00 21,0 18,0 22 12 NNW 1018,1 25 60
24.05.2018 15:00:00 20,8 17,8 22 12 NNW 1018,2 25 60
24.05.2018 14:00:00 20,8 17,8 21 11 NNW 1018,4 25 60
24.05.2018 13:00:00 21,0 17,8 22 12 NW 1018,8 25 60
24.05.2018 12:00:00 20,2 16,4 21 11 NW 1019,1 25 60
24.05.2018 11:00:00 20,0 15,9 16 9 NW 1019,1 25 60
24.05.2018 10:00:00 19,4 15,9 11 6 NW 1018,9 25 60
24.05.2018 09:00:00 18,6 15,1 8 4 WNW 1019,1 20 60
24.05.2018 08:00:00 16,2 12,7 2 1 ZO 1019,0 20 24
24.05.2018 07:00:00 13,2 9,8 5 3 ZO 1019,1 16 -
24.05.2018 06:00:00 13,8 10,4 5 3 O 1018,8 12 -
24.05.2018 05:00:00 14,6 11,2 5 3 O 1018,8 12 -
24.05.2018 04:00:00 15,2 11,8 4 2 OZO 1019,2 12 -
24.05.2018 03:00:00 15,8 12,2 5 3 OZO 1019,2 12 -
24.05.2018 02:00:00 16,2 12,9 4 2 N 1019,2 12 -
24.05.2018 01:00:00 16,4 13,1 4 2 NW 1019,3 12 -
24.05.2018 00:00:00 16,6 13,3 8 4 WNW 1019,2 12 -
23.05.2018 23:00:00 17,4 14,3 9 5 WNW 1019,1 12 -
23.05.2018 22:00:00 17,6 14,5 9 5 NW 1018,9 12 -
23.05.2018 21:00:00 17,6 14,9 9 5 NW 1018,1 12 -
23.05.2018 20:00:00 18,6 16,4 11 6 NW 1018,1 16 18
23.05.2018 19:00:00 19,8 17,4 15 8 NW 1017,8 18 60
23.05.2018 18:00:00 20,0 17,4 18 10 NW 1017,7 18 60
23.05.2018 17:00:00 21,0 17,6 18 10 WNW 1018,0 18 60
23.05.2018 16:00:00 21,2 17,2 22 12 WNW 1018,1 18 60
23.05.2018 15:00:00 21,2 17,4 24 13 WNW 1018,1 18 60
23.05.2018 14:00:00 20,2 17,2 22 12 WNW 1018,3 18 30
23.05.2018 13:00:00 21,4 17,4 24 13 W 1018,0 18 60
23.05.2018 12:00:00 20,6 16,8 22 12 W 1017,9 18 54
23.05.2018 11:00:00 20,4 16,8 24 13 WNW 1017,4 18 60
23.05.2018 10:00:00 19,2 15,7 22 12 W 1017,1 18 60
23.05.2018 09:00:00 18,6 14,7 18 10 WNW 1016,8 18 60
23.05.2018 08:00:00 17,0 13,3 11 6 W 1016,4 18 48
23.05.2018 07:00:00 16,0 12,4 9 5 W 1016,2 14 -
23.05.2018 06:00:00 16,2 12,5 5 3 NW 1016,1 14 -
23.05.2018 05:00:00 16,4 12,5 11 6 WNW 1016,1 12 -
23.05.2018 04:00:00 16,0 12,2 5 3 WNW 1016,1 12 -
23.05.2018 03:00:00 16,2 12,4 13 7 NNW 1015,7 12 -
23.05.2018 02:00:00 16,6 13,0 9 5 NW 1015,9 12 -
23.05.2018 01:00:00 16,8 13,1 15 8 NW 1014,9 12 30
23.05.2018 00:00:00 17,0 13,3 13 7 NW 1015,7 12 -
22.05.2018 23:00:00 17,0 13,3 13 7 NNW 1015,5 12 -
22.05.2018 22:00:00 17,2 13,5 13 7 N 1014,5 12 -
22.05.2018 21:00:00 17,2 13,7 18 10 NNW 1013,8 12 -
22.05.2018 20:00:00 17,4 13,9 5 3 WNW 1014,6 7 -
22.05.2018 19:00:00 18,0 14,5 15 8 NNW 1014,6 9 0
22.05.2018 18:00:00 18,0 14,7 16 9 NNW 1014,1 9 0
22.05.2018 17:00:00 19,2 15,9 15 8 NW 1014,5 12 0
22.05.2018 16:00:00 19,4 16,1 13 7 NW 1014,8 12 0
22.05.2018 15:00:00 19,8 17,2 13 7 NNW 1014,4 12 0
22.05.2018 14:00:00 20,6 18,0 11 6 NNW 1014,4 16 18
22.05.2018 13:00:00 21,2 18,6 13 7 NNW 1014,4 16 30
22.05.2018 12:00:00 21,0 18,8 15 8 NNW 1014,5 16 60
22.05.2018 11:00:00 21,0 18,9 15 8 NW 1014,1 20 60
22.05.2018 10:00:00 21,0 18,6 13 7 NW 1014,1 20 60
22.05.2018 09:00:00 20,6 16,4 9 5 W 1014,1 20 60
22.05.2018 08:00:00 18,6 15,7 2 1 N 1013,3 20 0
22.05.2018 07:00:00 15,8 13,7 4 2 OZO 1013,3 18 -
22.05.2018 06:00:00 16,0 13,7 2 1 NNO 1012,9 12 -
22.05.2018 05:00:00 16,0 14,0 2 1 OZO 1012,2 12 -
22.05.2018 04:00:00 16,0 14,0 2 1 ZO 1012,2 12 -
22.05.2018 03:00:00 16,0 14,4 5 3 WNW 1011,8 12 -
22.05.2018 02:00:00 16,0 14,4 4 2 NW 1011,8 12 -
22.05.2018 01:00:00 17,0 14,8 5 3 OZO 1012,9 12 -
22.05.2018 00:00:00 17,6 14,7 9 5 O 1012,9 12 -
21.05.2018 23:00:00 18,0 14,9 4 2 ONO 1012,8 12 -
21.05.2018 22:00:00 18,2 15,5 5 3 N 1012,3 12 -
21.05.2018 21:00:00 19,0 16,0 4 2 N 1011,9 12 -
21.05.2018 20:00:00 19,0 16,6 9 5 NNW 1011,9 15 -
21.05.2018 19:00:00 20,2 16,7 13 7 NNW 1011,1 18 0
21.05.2018 18:00:00 21,0 16,8 15 8 N 1011,2 18 6
21.05.2018 17:00:00 21,2 16,0 21 11 N 1011,1 16 54
21.05.2018 16:00:00 21,2 18,6 18 10 NNW 1011,5 18 60
21.05.2018 15:00:00 21,2 18,8 15 8 NNW 1012,0 18 30
21.05.2018 14:00:00 22,6 19,8 18 10 NW 1012,2 16 36
21.05.2018 13:00:00 21,8 17,2 9 5 NNO 1012,2 12 0
21.05.2018 12:00:00 20,0 16,8 5 3 W 1013,1 12 0
21.05.2018 11:00:00 18,6 15,9 15 8 WZW 1012,5 8 -
21.05.2018 10:00:00 21,4 18,6 18 10 ZW 1012,3 12 12
21.05.2018 09:00:00 20,2 16,7 4 2 ZO 1011,7 18 30
21.05.2018 08:00:00 18,4 15,1 4 2 Z 1011,5 16 0
21.05.2018 07:00:00 16,8 13,5 8 4 OZO 1011,3 15 -
21.05.2018 06:00:00 16,8 13,5 4 2 ZZO 1011,2 15 -
21.05.2018 05:00:00 16,8 13,7 9 5 OZO 1011,1 15 -
21.05.2018 04:00:00 17,2 13,9 9 5 OZO 1011,2 15 -
21.05.2018 03:00:00 17,2 13,9 9 5 ZZO 1011,4 15 -
21.05.2018 02:00:00 17,6 14,3 11 6 ZZO 1011,4 15 -
21.05.2018 01:00:00 17,8 14,5 8 4 Z 1011,3 15 -
21.05.2018 00:00:00 18,6 15,5 2 1 Z 1011,1 15 -
20.05.2018 23:00:00 18,8 15,5 4 2 - 1010,6 18 -
20.05.2018 22:00:00 19,0 15,7 5 3 N 1010,2 18 -
20.05.2018 21:00:00 19,0 16,0 11 6 NNW 1010,1 18 -
20.05.2018 20:00:00 20,2 18,2 11 6 NNW 1009,5 18 0
20.05.2018 19:00:00 21,0 18,4 11 6 NNW 1009,6 15 0
20.05.2018 18:00:00 21,0 18,4 21 11 N 1009,4 15 0
20.05.2018 17:00:00 22,0 18,4 24 13 N 1009,9 20 48
20.05.2018 16:00:00 20,4 18,5 21 11 NNW 1010,6 20 60
20.05.2018 15:00:00 21,0 18,9 22 12 NNW 1010,9 20 60
20.05.2018 14:00:00 22,0 18,8 18 10 NNW 1011,0 20 24
20.05.2018 13:00:00 21,8 19,2 16 9 NW 1011,2 20 60
20.05.2018 12:00:00 22,0 18,4 16 9 NNW 1011,5 20 60
20.05.2018 11:00:00 22,0 16,9 15 8 NW 1011,6 20 0
20.05.2018 10:00:00 22,0 15,8 11 6 NW 1011,6 20 60
20.05.2018 09:00:00 21,0 16,2 8 4 N 1011,7 20 60
20.05.2018 08:00:00 18,0 14,9 4 2 N 1012,0 20 18
20.05.2018 07:00:00 16,0 12,9 4 2 N 1011,7 16 -
20.05.2018 06:00:00 16,0 12,9 0 0 N 1012,0 12 -
20.05.2018 05:00:00 16,0 12,9 4 2 N 1012,2 12 -
20.05.2018 04:00:00 11,2 8,2 4 2 OZO 1012,9 12 -
20.05.2018 03:00:00 11,4 8,4 4 2 N 1013,2 12 -
20.05.2018 02:00:00 17,0 13,7 4 2 N 1013,2 12 -
20.05.2018 01:00:00 17,0 13,9 0 0 N 1013,1 12 -
20.05.2018 00:00:00 17,4 14,7 5 3 N 1013,2 12 -
19.05.2018 23:00:00 18,0 15,4 5 3 NNW 1012,5 12 -
19.05.2018 22:00:00 17,8 15,4 8 4 N 1012,1 12 -
19.05.2018 21:00:00 19,0 16,8 9 5 N 1011,8 12 -
19.05.2018 20:00:00 19,6 17,6 15 8 N 1012,0 20 18
19.05.2018 19:00:00 20,2 18,2 22 12 N 1012,1 20 60
19.05.2018 18:00:00 21,2 19,0 18 10 NNW 1012,1 20 60
19.05.2018 17:00:00 22,8 19,2 18 10 N 1012,1 20 60
19.05.2018 16:00:00 23,2 19,0 18 10 NNW 1012,4 20 60
19.05.2018 15:00:00 23,0 17,9 16 9 NNW 1012,9 20 60
19.05.2018 14:00:00 22,8 17,5 21 11 NNW 1013,1 20 60
19.05.2018 13:00:00 22,2 17,4 18 10 NNW 1013,1 20 60
19.05.2018 12:00:00 22,0 16,9 22 12 N 1013,1 20 60

tt = temperatuur
td = dauwpunt
ff = windsnelheid
dd = windrichting
ppp = luchtdruk
vv = zicht
sd = Zonneschijnduur

Weerstations in de omgeving